Location: Ay?beleni
(36.6500°N, 30.3000°E)
Time: 09:37:54
(UTC+00:00)

ARGOS - Pass Details

Date: 09 April 2020
Orbit: 820 x 834 km, 98.5° (Epoch: 31 May)

Event Time Altitude Azimuth Distance (km) Brightness Sun altitude
Exits shadow 17:39:34 - 163° (SSE) 2,779 5.5 -14.6°
Reaches altitude 10° 17:40:27 10° 163° (SSE) 2,425 5.2 -14.7°
Maximum altitude 17:45:50 83° 76° (ENE) 838 3.1 -15.7°
Drops below altitude 10° 17:51:14 10° 349° (N) 2,431 6.1 -16.7°
Sets 17:53:35 0° 349° (NNW) 3,366 6.8 -17.1°
